Hourly Data

Hourly Data Report for March 07, 2012

All times are specified in Local Standard Time (LST). Add 1 hour to adjust for Daylight Saving Time where and when it is observed.

Metadata including Station Name, Province, Latitude, Longitude, Elevation, Climate ID, WMO ID, TC ID
CHARLOTTETOWN A
PRINCE EDWARD ISLAND
Latitude: 46°17'19.020" N Longitude: 63°07'43.070" W Elevation: 48.80 m
Climate ID: 8300300 WMO ID: 71706 TC ID: YYG
Hourly Data Report for March 7, 2012
Temp Definition
°C

Dew Point Temp Definition
°C

Rel Hum Definition
%

Wind Dir Definition
10's deg
Wind Spd Definition
km/h

Visibility Definition
km

Stn Press Definition
kPa

Hmdx Definition

Wind Chill Definition

Weather Definition

TIME
00:00 -7.5 -11.7 72 34 9 24.1 102.52 -12 Mainly Clear
01:00 -9.2 -12.3 78 32 6 24.1 102.54 -13 Mainly Clear
02:00 -9.7 -12.6 79 31 7 24.1 102.59 -14 Mainly Clear
03:00 -10.5 -13.0 82 28 9 24.1 102.68 -15 Mainly Clear
04:00 -10.5 -13.4 79 31 4 24.1 102.72 -13 Mainly Clear
05:00 -11.7 -13.7 85 30 4 24.1 102.72 -14 Mainly Clear
06:00 -10.4 -12.9 82 28 11 24.1 102.79 -16 Mainly Clear
07:00 -9.9 -12.4 82 27 11 24.1 102.81 -15 Mainly Clear
08:00 -9.9 -12.3 83 24 9 24.1 102.86 -15 Mainly Clear
09:00 -7.4 -10.2 80 24 13 24.1 102.85 -13 Mainly Clear
10:00 -5.3 -9.9 70 25 9 24.1 102.81 -9 Mainly Clear
11:00 -3.4 -10.9 56 23 11 24.1 102.72 -8 Mainly Clear
12:00 -2.4 -9.6 58 21 17 24.1 102.62 -8 Mostly Cloudy
13:00 -2.7 -10.5 55 22 17 24.1 102.52 -8 Mostly Cloudy
14:00 -1.0 -9.6 52 22 15 24.1 102.44 -6 Mostly Cloudy
15:00 -1.1 -8.9 55 18 13 24.1 102.35 -5 Mostly Cloudy
16:00 -0.8 -8.0 58 18 15 24.1 102.25 -5 Cloudy
17:00 -0.1 -7.2 59 19 28 24.1 102.15 -6 Cloudy
18:00 0.3 -6.9 58 18 30 24.1 102.05 Cloudy
19:00 -0.1 -6.3 63 18 32 24.1 101.93 -7 Mostly Cloudy
20:00 -0.1 -5.0 70 18 30 24.1 101.84 -7 Mostly Cloudy
21:00 0.3 -4.3 71 19 33 24.1 101.72 Mostly Cloudy
22:00 0.9 -3.2 74 19 35 24.1 101.61 Mostly Cloudy
23:00 1.3 -2.6 75 19 32 24.1 101.52 Mostly Cloudy

Notes on Data Quality.

Legend
  • M = Missing
  • E = Estimated
  • NA = Not Available
  • ‡ = Partner data that is not subject to review by the National Climate Archives